Regional Weather Roundup
Issued by NWS Charleston, SC

Current Version | Previous Version | Graphics & Text | Print | Product List | Glossary On
Versions: 1 2 3 4 5 6 7 8 9 10 11 12 13 14 15 16 17 18 19 20 21 22 23 24 25 26 27 28 29 30 31 32 33 34 35 36 37 38 39 40 41 42 43 44 45 46 47 48 49 50
000
ASUS42 KCHS 132313
RWRCHS

REGIONAL WEATHER ROUNDUP
NATIONAL WEATHER SERVICE CHARLESTON SC
600 PM EST SAT FEB 13 2016

NOTE: "FAIR" INDICATES FEW OR NO CLOUDS BELOW 12,000 FEET WITH NO
SIGNIFICANT WEATHER AND/OR OBSTRUCTIONS TO VISIBILITY.

NOT ALL STATIONS ARE QUALITY CONTROLLED BY THE NATIONAL
WEATHER SERVICE. USE DATA WITH CAUTION...ESPECIALLY
DEWPOINT OBSERVATIONS.

SCZ027-030-031-034>040-042>050-140000-
...SOUTHEAST SOUTH CAROLINA...

CITY           SKY/WX    TMP DP  RH WIND       PRES   REMARKS
N CHARLESTON   CLEAR     45  17  32 N8        30.29R
WATERFRONT PRK   N/A     47  26  44 N9        30.13R
MOUNT PLEASANT FAIR      45  19  36 N5        30.30R
JOHNS ISLAND   FAIR      46  23  39 CALM      30.29R
PINOPOLIS        N/A     48  18  29 NW8       30.19F
MONCKS CORNER  FAIR      41  10  28 NW3       30.29R
SUMMERVILLE    NOT AVBL
BEAUFORT MCAS  CLEAR     49  23  36 NW6       30.29R
BEAUFORT ARPT  FAIR      50  27  40 N5        30.28R HAZE
HILTON HEAD IS CLEAR    N/A N/A N/A N6        30.29R
WALTERBORO     CLEAR     48  19  32 N3        30.30R
ALLENDALE      FAIR      48  19  32 CALM      30.29R

...SOUTHERN MIDLANDS AND PEE DEE...

CITY           SKY/WX    TMP DP  RH WIND       PRES   REMARKS
GEORGETOWN     FAIR      41  16  36 N6        30.31R
KINGSTREE      FAIR      41  16  36 CALM      30.31R
ORANGEBURG     CLEAR     45   3  17 N8        30.30R
BARNWELL       FAIR      46  23  39 CALM      30.30R
AIKEN          FAIR      43  18  36 N3        30.31R
MANNING        FAIR      43  16  33 NW3       30.30R
COLUMBIA       CLEAR     44   1  16 N7        30.31R
SUMTER         CLEAR     41  13  32 N7        30.28R
FLORENCE       CLEAR     39  11  31 N9        30.31R WCI  33
MYRTLE BEACH   NOT AVBL
N MYRTLE BEACH CLEAR     39  12  33 N5        30.31R WCI  36

$$

GAZ063-065-086>088-099>101-113>116-118-119-134>141-150-140000-
...SOUTHEAST GEORGIA...

CITY           SKY/WX    TMP DP  RH WIND       PRES   REMARKS
SAVANNAH ARPT  CLEAR     50  19  29 NW8       30.29R
HUNTER AAF     CLEAR     50  20  31 NW9       30.26R
FORT STEWART   CLEAR     51  21  31 NW5       30.27R
STATESBORO     CLEAR     52   8  17 N5        30.29R
SYLVANIA       CLEAR     50  24  35 N5        30.30R
CLAXTON        FAIR      51  24  34 W6        30.29R

...CSRA...CENTRAL AND FAR SOUTHEAST GEORGIA...

CITY           SKY/WX    TMP DP  RH WIND       PRES   REMARKS
THOMSON        CLEAR     47  16  28 NW6       30.34R
AUGUSTA-BUSH   CLEAR     47  10  22 NW8       30.30R
AUGUSTA-DANIEL CLEAR     47   9  21 NW6       30.29R
SWAINSBORO     FAIR      46  16  29 NW8       30.30R
VIDALIA        PTCLDY    50  16  25 NW7       30.30R
EASTMAN        FAIR      49   9  20 NW6       30.33S
HAZLEHURST     FAIR      51  14  22 NW6       30.29R
ALMA           CLEAR     51  17  26 NW10      30.29R
WAYCROSS       CLEAR     54  22  29 N9        30.29R
JESUP          FAIR      54  21  28 NW6       30.29R
BAXLEY         FAIR      52  18  25 NW6       30.29R
BRUNSWICK      CLEAR     50  36  57 E7        30.29R
SAINT SIMONS   CLEAR     48  35  60 E7        30.28R

$$

SCZ027-028-034-036>038-045-046-048>050-GAZ119-141-140000-
...LAKE AND SUPPLEMENTAL COASTAL OBSERVATIONS...

STATION/POSITION TIME  TEMP    WIND        PRES    WAVE   SWELL
                       AIR SEA DIR/SP/G            HT/PER HT/PER/DIR
                 (UTC) (F)     (DEG/KT/KT) (MB)    (FT/S) (FT/S/D)
WINYAH BAY       NOT AVBL
LAKE MURRAY      2200   45      20/  3/  7 1024.7R
ACE BASIN NERRS  NOT AVBL
FORT PULASKI     2200   50 50              1025.0R
SAPELO ISLAND    NOT AVBL

$$

ANZ835-935-AMZ111-154-330-350-352-354-370-450-454-472-140000-
...C-MAN AND BUOY OBSERVATIONS...

STATION/POSITION TIME  TEMP    WIND        PRES    WAVE   SWELL
                       AIR SEA DIR/SP/G            HT/PER HT/PER/DIR
                 (UTC) (F)     (DEG/KT/KT) (MB)    (FT/S) (FT/S/D)
BUOY 41004       2250   45 66  360/  8/ 12 1025.7R   4/ 6   3/ 6
BUOY 41008       2250   47 53   80/  6/  8 1025.7R   2/ 5   2/ 50/ 5
FOLLY BEACH CMAN 2300   46      10/  9/ 11 1025.8R
CAPERS NEARSHORE 2208   44     100/  8/ 12 1025.0R
FRIPP NEARSHORE  2200   50     360/  8/  8 1024.1R


STATION/POSITION TIME  TEMP    WIND        PRES    WAVE   SWELL
                       AIR SEA DIR/SP/G            HT/PER HT/PER/DIR
                 (UTC) (F)     (DEG/KT/KT) (MB)    (FT/S) (FT/S/D)
5E ST. MARYS GA  2221      56                N/A     2/ 6
FRYING PAN BUOY  2200   42 61  330/ 14/ 17 1025.3R
BUOY 41025       2250   36 72  330/ 17/ 25 1025.1R   5/ 8   3/ 40/ 8
CAPE LOOKOUT NC  NOT AVBL
BUOY 41002       2250   51 68  340/ 21/ 29   N/A     9/ 8
BUOY 41010       2220   63 72              1022.3R
ST AUGUSTINE FL  2300   51 58   30/ 11/ 12 1025.3R


$$



USA.gov is the U.S. government's official web portal to all federal, state and local government web resources and services.